Коченёво

Россия / Новосибирская область     55°01′17″N   82°12′27″E
темп.,
°C
ветер,
м/с
пор.,
м/с
влажн.,
%
обл.,
%
осадки,
мм/ч
давл.,
гПа
погр.,
м
17 мая, пн
пн1701:00+14ссв23955 10.8 101252
04:00+12ссв369828 0.0 1013171
07:00+12с359031 0.0 1015248
10:00+17с346613 0.0 1016810
13:00+20сз4653100 0.0 10151674
16:00+20зсз465292 0.1 10151543
19:00+22зсз474674 0.1 10141744
22:00+18ююв335994 0.0 101120
18 мая, вт
вт1801:00+15юв3585100 3.3 1011122
04:00+15юз4118870 1.1 1008255
07:00+16зюз5137947 1.6 1006431
10:00+21зсз812599 0.0 1005833
13:00+23зсз913475 0.0 10041925
16:00+23сз91149100 0.0 10042131
19:00+20ссз575593 0.0 10041235
22:00+15сз36855 0.6 1006125
19 мая, ср
ср1901:00+14ссв3690100 2.0 1005312
04:00+10ссв61091100 0.1 1005432
07:00+8ссв81392100 5.5 1007679
10:00+8ссв81281100 2.0 10091076
13:00+12ссв81043100 2.0 10111663
16:00+13с89312 0.0 10132100
19:00+11с78385 0.0 10142259
22:00+7с33495 0.0 101651
20 мая, чт
чт2001:00+6сз3351100 0.0 101628
04:00+6ссз365896 0.0 1016167
07:00+4с47642 0.0 1017299
10:00+7с464041 0.0 10181702
13:00+9сз5634100 0.0 10172081
16:00+10сз5734100 0.0 10171997
19:00+9зсз5543100 0.0 10181761
22:00+6зюз4459100 0.0 1017487
21 мая, пт
пт2101:00+3ю5890100 0.8 1016447
04:00+3ююв61196100 1.7 1014548
07:00+3юв61296100 5.9 1013511
10:00+4юв61096100 0.9 1014626
13:00+8юв6878100 0.9 1015862
16:00+11ююв4663100 0.0 10151282
19:00+12ююв34566 0.0 10161140
22:00+8зюз228046 0.0 101618